{"data":{"norad_id":68153,"intl_designator":"2026-049M","name":"STARLINK-37072","alt_names":[],"object_type":"PAYLOAD","status":"ACTIVE","operator":null,"country":"US","launch_date":"2026-03-13","launch_site_code":"AFWTR","launch_vehicle":null,"mission":null,"orbit_class":"UNKNOWN","rcs_meters":null,"size_class":null,"mass_kg":null,"dimensions":null,"purposes":["comms"],"wikipedia_slug":null,"has_3d_model":false,"image_url":null,"decayed_at":null,"tle_current":{"epoch":"2026-05-25T01:45:30.123648Z","epoch_age_seconds":62620,"freshness":"FRESH","line1":"1 68153U 26049M   26145.07326532  .00047006  00000+0  14497-2 0  9993","line2":"2 68153  97.2852 166.7380 0000959 145.2859 214.8446 15.33436542 11351","mean_motion":15.33436542,"eccentricity":9.59e-5,"inclination_deg":97.2852,"raan_deg":166.738,"arg_perigee_deg":145.2859,"mean_anomaly_deg":214.8446,"bstar":0.0014497,"rev_number":1135,"period_min":93.906722616762,"perigee_km":464.91202830902,"apogee_km":466.22465099316,"semimajor_km":6843.7053396511,"source":"CELESTRAK","updated_at":"2026-05-25T13:38:21.848786Z"}}}